Temperature
32 33 33 33 33 33 33 32 32 32 31 31 31 31 30 28 28 28 27 26 25 25 24 23 22 21 21 20 20 20 19 19 19 18 18 18 18 18 18 18 18 18 18 18
32 32 33 33 32 32 32 32 32 31 31 31 31 31 31 29 28 28 28 27 26 25 24 23 22 22 21 21 20 20 20 19 19 19 19 18 18 18 18 18 18 18 18 18
32 33 32 32 32 32 32 32 32 31 31 31 31 31 31 30 29 28 28 27 27 26 25 23 22 22 21 21 21 20 20 19 19 19 18 18 18 18 18 18 18 18 18 18
32 32 32 32 32 32 32 32 32 31 31 31 31 31 31 31 30 29 28 28 27 26 25 24 23 22 22 21 21 20 20 20 19 19 19 18 18 18 18 18 18 18 18 18
31 32 31 32 32 32 32 32 32 31 31 32 31 31 32 31 30 30 30 29 28 27 26 25 24 23 22 21 21 21 21 20 20 19 19 19 18 18 18 18 18 18 18 18
32 32 32 32 32 32 31 31 31 31 32 30 31 31 31 32 31 32 31 29 28 27 26 25 24 23 22 22 21 21 21 20 20 20 19 19 18 18 18 18 18 18 18 17
30 31 31 32 31 31 31 31 30 30 30 30 31 31 32 32 32 32 31 30 28 27 26 25 24 23 22 22 21 21 21 21 20 20 19 19 19 19 18 18 18 18 18 17
30 30 31 32 32 31 32 32 30 30 30 31 30 31 32 32 31 31 30 30 28 27 26 25 24 24 23 22 22 21 21 21 20 20 20 19 19 18 18 18 18 18 17 17
31 31 31 31 32 32 31 32 33 32 31 31 31 31 32 32 32 31 30 30 29 28 27 26 25 24 23 22 22 21 21 21 21 20 20 20 19 19 18 18 18 17 18 17
31 30 31 31 31 31 32 32 32 31 30 30 31 31 32 31 31 31 31 30 29 28 27 26 25 24 23 23 22 21 21 21 21 20 20 20 19 19 19 18 18 18 18 18
31 30 30 30 30 31 30 31 31 31 31 30 30 31 32 31 31 31 31 30 29 28 27 26 25 24 23 23 22 22 21 21 21 20 20 20 19 19 19 19 18 18 18 17
29 30 30 30 30 31 31 31 31 30 30 30 31 31 32 31 31 31 30 29 28 27 27 25 25 24 23 23 22 22 21 21 21 21 20 20 20 19 19 18 18 18 18 17
28 29 28 28 29 29 30 31 31 32 31 30 30 31 31 31 31 30 29 28 27 26 26 25 24 24 23 23 22 22 21 21 21 21 20 20 20 19 19 18 18 18 17 17
27 28 29 29 29 30 29 30 30 31 30 30 30 31 31 31 30 30 29 28 27 26 25 25 24 23 23 22 22 22 21 21 21 21 20 20 19 19 19 18 18 18 17 17
27 28 28 29 30 30 29 30 30 30 30 31 31 31 31 30 30 29 28 27 26 26 25 24 24 23 22 22 22 22 21 21 21 21 20 20 19 19 19 18 18 18 17 16
26 27 27 28 29 29 29 29 29 29 30 30 30 30 30 29 29 28 27 26 26 25 25 24 23 23 22 22 21 21 21 21 21 21 20 20 20 19 19 18 18 17 17 16
26 26 26 27 28 28 28 29 29 29 29 30 29 30 29 29 28 27 26 26 25 25 24 24 23 23 22 22 22 22 22 21 21 21 20 20 20 19 19 18 17 17 17 16
24 25 26 27 26 26 28 28 29 28 28 29 29 29 28 28 27 26 25 25 25 24 24 23 23 22 22 22 22 22 21 21 21 21 20 20 20 19 18 18 17 17 16 16
23 24 26 26 26 27 27 27 27 27 27 27 27 27 27 26 27 26 24 24 23 23 23 23 23 23 22 22 22 21 21 21 21 20 20 20 20 19 18 18 17 17 16 16
23 23 25 25 25 26 27 27 26 27 26 26 26 26 26 26 28 27 23 23 22 22 22 22 22 22 22 21 21 21 20 20 20 20 20 20 19 19 18 18 17 17 16 16
23 23 24 25 25 26 26 25 25 25 25 24 24 24 24 25 25 23 22 22 21 21 22 22 22 22 21 21 21 20 20 20 20 20 19 19 19 18 18 17 17 16 16 15
23 24 23 24 24 25 24 25 25 24 23 23 23 23 22 22 21 21 21 21 21 21 21 21 21 21 21 20 20 20 20 20 20 19 19 19 18 18 17 17 16 16 16 15
23 23 24 24 24 22 22 22 21 21 21 21 22 21 21 21 21 20 20 20 20 20 20 20 20 20 20 20 20 20 20 19 19 19 18 18 17 17 17 16 16 16 15 15
21 20 22 22 22 22 21 20 20 20 20 20 20 20 20 20 20 19 19 19 19 19 20 20 20 20 19 19 19 19 19 19 19 18 18 17 17 16 16 16 16 15 15 15
21 21 21 21 21 21 20 20 19 19 19 19 19 19 19 19 19 19 18 18 18 18 18 19 19 19 19 18 18 18 18 18 18 18 17 17 16 16 16 15 15 15 15 15
20 20 21 21 20 21 20 19 19 18 18 18 18 18 18 18 18 18 18 18 18 18 18 18 18 18 18 18 18 18 18 18 18 17 17 16 16 16 15 15 15 15 14 14
Wind_Speed
8 10 10 9 7 3 4 4 4 3 5 7 7 6 7 12 12 12 11 12 12 11 10 10 9 9 8 7 7 7 6 6 5 4 4 4 3 2 2 2 2 3 3 3
10 12 8 6 6 6 6 6 5 5 4 6 5 7 6 11 14 13 12 12 12 11 11 11 10 10 9 8 8 8 7 7 6 4 3 3 2 2 2 1 1 2 3 3
14 8 7 9 10 9 8 7 5 4 5 6 6 6 7 9 11 12 13 12 12 12 12 12 12 11 10 10 9 8 7 7 7 5 4 4 3 3 2 2 2 2 2 3
12 8 8 11 11 11 9 6 5 6 6 4 5 3 6 8 10 13 14 14 13 13 13 12 12 12 11 10 9 9 8 7 6 6 5 5 4 3 2 2 1 1 1 2
11 10 11 12 11 10 6 5 6 7 7 5 6 6 3 7 8 11 13 14 14 14 13 13 12 12 11 10 9 9 8 7 7 6 6 5 5 3 2 2 2 2 1 1
9 8 9 9 7 8 7 7 6 7 8 8 5 7 3 4 6 7 10 12 13 14 13 13 12 11 11 10 9 9 9 8 7 7 6 6 5 4 3 2 2 2 1 1
12 10 8 8 10 11 11 9 7 8 8 6 4 6 4 1 3 5 6 9 11 13 13 13 13 13 12 12 11 10 9 8 8 8 7 6 5 4 4 3 2 1 1 0
16 15 13 11 13 12 14 14 10 8 7 6 6 6 3 1 3 4 5 7 10 12 13 13 14 13 12 12 12 11 10 9 9 8 7 5 5 4 3 3 2 1 0 1
13 14 11 9 8 11 14 14 11 10 10 9 6 5 5 4 5 5 6 8 9 11 12 13 14 14 13 13 12 11 10 9 9 8 7 6 5 4 3 3 2 1 1 1
9 11 11 10 9 6 10 11 9 12 11 11 9 9 6 5 5 5 7 8 9 10 11 12 12 13 13 12 12 11 10 10 9 9 8 7 6 5 5 3 2 1 1 1
11 11 11 12 13 14 11 12 11 11 11 11 10 6 2 3 3 4 6 8 9 11 11 11 11 11 12 12 12 11 11 10 9 9 8 7 6 6 5 4 3 2 2 1
10 10 12 13 8 7 13 14 14 12 11 11 11 6 4 2 3 4 4 6 8 9 10 11 11 11 12 12 12 12 11 11 10 9 9 8 7 6 5 5 4 3 2 2
9 9 12 12 11 9 11 12 14 14 12 12 13 8 5 2 2 3 3 5 7 8 9 10 11 11 11 12 12 12 12 11 11 10 9 8 8 7 6 5 5 4 3 2
7 10 14 15 12 13 13 13 14 14 13 14 14 10 4 2 3 3 3 4 6 8 8 9 10 11 11 11 11 12 11 11 11 11 10 9 8 7 7 6 5 4 4 3
7 12 12 10 7 9 12 14 15 16 15 14 12 11 7 4 3 3 3 4 6 7 8 9 10 11 11 11 11 11 11 11 11 11 10 9 8 7 7 6 6 5 4 4
5 9 11 12 10 11 13 14 14 15 14 14 12 10 5 4 2 2 2 4 5 6 7 8 10 11 12 11 11 11 11 11 11 11 10 10 9 9 8 7 6 5 5 4
7 8 12 13 11 12 16 14 14 14 12 12 13 9 5 4 3 2 2 3 4 4 5 7 9 11 11 12 12 12 12 12 12 11 11 10 10 10 9 8 7 6 6 5
6 9 9 11 10 16 9 5 9 11 10 9 8 6 4 5 4 2 2 2 3 3 4 6 7 9 10 11 11 11 12 12 13 12 11 11 11 10 9 8 8 7 6 6
7 8 9 11 15 13 7 5 7 10 10 6 6 5 3 3 4 4 1 1 2 2 2 3 6 8 10 11 11 11 12 12 12 12 12 12 11 11 10 9 9 7 7 6
8 8 10 11 14 15 8 6 4 7 10 4 4 4 3 3 7 3 3 4 3 2 1 2 5 7 9 10 11 12 12 12 12 12 12 11 11 10 10 10 9 8 7 7
10 10 13 14 13 9 3 4 6 10 5 2 2 3 3 3 4 4 4 3 2 2 1 2 5 7 8 9 10 11 11 11 10 10 10 10 10 10 10 9 9 9 8 7
10 10 12 12 13 9 3 5 5 1 2 0 1 1 2 2 2 3 4 3 2 2 1 2 4 5 6 8 9 10 9 9 9 9 10 10 10 9 9 10 9 8 8 8
7 5 5 6 4 3 2 1 0 1 1 1 1 2 2 2 3 3 3 3 2 2 1 1 3 4 5 6 8 8 8 8 8 9 10 10 10 9 9 10 10 8 8 7
5 3 4 5 4 2 2 1 1 2 2 3 2 2 2 2 3 3 3 3 3 3 1 1 3 4 4 5 6 6 7 8 8 9 9 9 9 9 9 8 8 8 8 8
4 5 6 7 5 4 4 3 2 2 3 3 2 2 2 2 2 2 3 3 3 2 1 1 3 3 4 5 5 6 7 8 8 8 8 9 9 8 8 7 5 6 6 6
7 7 8 6 3 4 4 3 4 3 4 3 3 3 3 2 2 2 2 2 3 3 2 0 2 3 4 4 5 5 7 7 8 8 8 7 8 8 8 7 6 2 1 3
Wind_Direction
198 214 212 206 218 239 201 206 187 165 170 208 223 224 187 188 200 202 199 200 203 204 197 195 197 198 193 192 195 204 210 202 209 215 215 211 210 215 215 223 221 229 239 232
207 218 211 197 199 221 214 214 192 161 172 220 234 236 210 197 206 209 207 205 206 202 196 193 197 198 198 196 196 204 207 206 209 210 219 225 227 225 215 237 209 232 235 238
218 202 185 198 199 213 215 221 204 179 176 211 249 221 199 200 209 213 217 214 209 205 201 196 197 199 199 198 198 202 205 205 210 210 207 208 202 217 213 206 201 228 239 244
220 198 194 207 207 215 212 211 208 191 210 212 240 250 179 192 202 211 214 213 211 206 203 199 196 198 200 199 196 199 199 201 201 203 214 219 229 231 224 224 194 208 228 249
206 196 201 211 208 214 208 179 199 208 231 246 222 264 175 177 205 209 210 210 209 205 201 199 198 196 198 196 193 192 192 197 199 202 208 217 231 230 211 203 195 239 217 251
213 200 214 214 199 194 164 167 184 216 236 240 236 258 241 184 207 204 201 203 204 202 198 197 195 191 193 192 192 190 188 194 196 201 207 215 224 229 227 221 221 223 206 202
206 200 197 194 188 184 198 208 216 223 228 234 201 249 254 192 213 216 198 193 194 194 194 193 191 190 191 191 191 189 187 192 195 197 201 206 213 217 220 230 215 240 240 179
205 202 194 200 210 204 211 223 232 239 241 228 193 243 237 179 214 217 201 190 186 188 191 191 189 189 190 191 190 189 188 189 189 190 193 197 204 213 207 207 229 219 250 49
212 208 182 195 214 217 208 223 240 246 252 255 235 237 231 204 208 199 189 181 182 184 185 186 186 187 187 189 189 189 185 184 183 182 182 187 193 200 186 175 196 188 180 154
225 213 190 185 192 217 232 220 226 239 241 245 238 237 234 202 200 194 188 185 181 179 180 180 182 185 184 184 184 186 183 181 180 179 184 181 182 182 180 183 168 161 169 117
227 217 195 194 209 205 200 212 224 235 244 250 249 235 177 201 213 213 198 187 184 182 179 176 177 178 178 179 179 180 180 179 180 182 181 177 176 176 176 173 174 177 170 150
217 222 212 204 202 236 221 219 214 226 230 243 259 247 127 181 213 208 197 182 183 182 177 175 173 172 175 177 178 179 180 179 180 178 177 177 176 176 178 173 170 165 154 144
200 217 210 202 200 205 216 220 225 233 236 238 247 242 142 170 210 196 192 181 180 179 178 177 175 176 177 177 178 178 181 180 177 174 176 176 177 177 178 171 162 155 149 145
221 222 228 227 216 201 208 213 222 228 233 237 242 253 218 217 232 209 193 188 185 179 181 183 179 179 178 177 177 179 181 177 175 175 177 178 179 177 172 166 160 158 158 153
224 221 227 239 234 219 219 218 217 228 240 247 244 245 252 254 249 225 199 189 186 185 184 186 184 179 177 177 179 181 179 177 175 176 177 176 172 165 162 162 163 163 163 155
222 223 219 224 224 226 229 227 226 230 238 243 249 247 255 263 257 227 204 194 196 196 193 190 187 181 180 179 180 181 178 175 174 176 175 169 166 165 167 165 163 159 155 148
207 213 219 224 216 225 230 226 226 226 232 241 242 246 253 247 249 246 228 219 215 210 203 195 192 188 183 183 181 180 177 172 172 175 172 169 169 169 168 164 159 156 154 149
222 219 220 225 213 231 231 214 224 223 228 239 251 260 258 260 257 239 226 241 244 235 220 201 192 190 185 183 182 180 174 174 175 176 175 174 173 171 168 167 163 160 155 151
220 216 221 224 224 228 206 194 210 218 221 227 245 258 268 277 237 198 86 333 278 262 234 208 198 191 181 181 180 176 176 178 179 180 180 178 175 172 172 172 167 162 160 160
197 218 226 225 234 234 209 179 206 227 220 195 231 249 256 253 240 215 12 335 321 310 246 187 191 182 177 179 176 177 179 182 186 185 182 178 175 176 176 169 165 164 166 167
194 205 221 226 233 235 182 178 192 221 217 160 224 245 248 248 299 337 329 322 333 326 303 171 175 175 174 174 175 180 182 187 187 181 176 175 175 175 172 166 167 167 170 169
212 211 215 224 232 226 139 187 215 254 25 120 251 275 288 304 324 332 334 332 349 8 20 151 162 164 167 172 175 179 185 185 175 172 174 175 175 174 168 167 170 172 172 173
222 242 230 230 229 88 99 147 45 309 311 331 327 336 326 309 315 332 338 339 342 358 31 135 160 153 156 173 179 183 179 178 171 171 175 176 177 175 171 172 173 176 183 189
210 240 232 229 212 198 186 202 281 284 297 306 304 302 303 306 329 339 344 344 342 344 12 144 161 157 158 169 178 181 175 172 170 174 175 176 176 175 174 179 181 186 192 197
240 218 224 233 232 233 219 238 265 290 300 295 298 300 301 311 320 330 336 337 338 339 336 167 172 173 167 167 175 172 166 168 171 175 177 179 179 179 180 183 188 195 202 210
236 236 235 239 231 244 242 257 275 277 280 284 283 286 296 301 298 310 321 332 338 335 338 222 175 175 171 170 169 169 167 168 174 178 179 184 183 181 182 178 180 148 195 171
Height
1504 1502 1502 1501 1500 1501 1504 1508 1512 1512 1512 1516 1517 1517 1519 1525 1528 1530 1533 1536 1539 1541 1544 1546 1548 1549 1550 1551 1552 1553 1554 1554 1555 1556 1557 1557 1558 1558 1558 1558 1558 1558 1558 1559
1503 1501 1498 1500 1502 1503 1504 1509 1510 1512 1513 1515 1515 1515 1515 1520 1524 1527 1530 1532 1535 1538 1541 1544 1545 1547 1548 1549 1550 1551 1552 1553 1554 1554 1555 1556 1556 1557 1557 1557 1557 1557 1557 1557
1500 1497 1500 1502 1504 1506 1505 1507 1509 1512 1513 1513 1515 1514 1514 1516 1521 1524 1527 1529 1532 1535 1538 1540 1542 1544 1546 1547 1549 1550 1551 1552 1552 1553 1554 1555 1555 1556 1556 1556 1556 1556 1556 1556
1496 1497 1500 1501 1502 1503 1508 1503 1506 1511 1514 1513 1514 1519 1511 1511 1516 1519 1522 1524 1527 1531 1534 1537 1539 1541 1543 1545 1547 1548 1549 1550 1551 1551 1553 1554 1554 1555 1555 1555 1555 1555 1554 1554
1496 1497 1499 1501 1499 1500 1502 1503 1505 1508 1511 1513 1512 1516 1509 1507 1511 1512 1515 1519 1523 1527 1530 1533 1536 1538 1541 1543 1545 1546 1547 1548 1549 1550 1551 1552 1553 1554 1554 1554 1553 1553 1553 1553
1492 1496 1496 1496 1498 1500 1503 1506 1508 1507 1508 1523 1515 1518 1514 1503 1505 1505 1509 1514 1519 1523 1527 1530 1533 1536 1539 1541 1542 1544 1545 1546 1547 1548 1549 1550 1551 1552 1552 1552 1553 1553 1553 1552
1497 1495 1496 1497 1500 1502 1503 1509 1521 1525 1525 1521 1510 1515 1509 1499 1500 1503 1506 1511 1516 1519 1523 1527 1530 1533 1536 1538 1540 1541 1543 1544 1545 1546 1547 1548 1549 1550 1551 1551 1551 1552 1552 1551
1499 1500 1493 1493 1494 1497 1499 1502 1518 1530 1527 1515 1513 1513 1500 1497 1501 1503 1506 1509 1513 1516 1520 1523 1527 1530 1533 1535 1537 1539 1540 1541 1543 1544 1546 1547 1548 1549 1550 1550 1550 1550 1551 1550
1490 1493 1489 1492 1492 1492 1498 1498 1493 1505 1511 1516 1509 1504 1497 1497 1499 1501 1504 1507 1510 1514 1517 1520 1524 1527 1530 1533 1535 1537 1538 1540 1541 1543 1544 1546 1547 1548 1548 1548 1549 1549 1549 1549
1483 1492 1489 1491 1493 1494 1491 1491 1499 1505 1522 1525 1514 1508 1502 1497 1497 1498 1501 1505 1508 1512 1515 1518 1521 1524 1527 1530 1532 1534 1536 1538 1540 1542 1543 1545 1545 1546 1547 1548 1548 1548 1548 1548
1482 1491 1492 1491 1492 1492 1496 1497 1497 1499 1502 1517 1520 1508 1489 1494 1495 1497 1499 1503 1506 1509 1512 1515 1518 1521 1524 1527 1530 1532 1534 1536 1538 1540 1542 1543 1544 1545 1546 1546 1547 1547 1547 1546
1484 1485 1490 1489 1487 1487 1487 1489 1495 1507 1510 1506 1507 1503 1487 1491 1494 1496 1498 1501 1504 1507 1510 1513 1516 1519 1522 1524 1527 1529 1532 1534 1536 1538 1540 1542 1543 1544 1545 1546 1546 1546 1546 1546
1486 1488 1498 1499 1497 1492 1490 1488 1487 1489 1495 1502 1507 1501 1488 1491 1493 1496 1498 1501 1503 1506 1509 1511 1514 1516 1519 1522 1524 1527 1529 1532 1534 1536 1538 1540 1541 1542 1543 1544 1544 1545 1544 1544
1487 1485 1490 1494 1488 1485 1490 1491 1489 1490 1497 1498 1498 1493 1488 1490 1493 1495 1498 1500 1502 1504 1507 1509 1511 1514 1516 1519 1522 1524 1527 1530 1532 1534 1536 1538 1539 1540 1541 1542 1543 1543 1543 1543
1486 1486 1484 1481 1480 1481 1485 1487 1488 1490 1488 1492 1490 1489 1488 1489 1492 1494 1496 1498 1500 1502 1504 1506 1508 1511 1514 1516 1519 1522 1525 1527 1529 1531 1534 1535 1537 1538 1539 1540 1541 1541 1541 1541
1486 1485 1485 1487 1483 1483 1486 1484 1485 1487 1486 1486 1487 1488 1487 1490 1492 1494 1496 1497 1499 1500 1502 1504 1506 1508 1510 1513 1516 1519 1522 1524 1526 1529 1531 1532 1534 1536 1537 1538 1538 1539 1539 1539
1484 1487 1489 1488 1483 1486 1490 1483 1483 1485 1484 1485 1488 1487 1487 1490 1492 1494 1495 1496 1497 1498 1500 1501 1503 1505 1507 1509 1512 1515 1518 1521 1523 1525 1527 1529 1531 1533 1534 1535 1536 1537 1537 1537
1487 1487 1485 1484 1491 1502 1482 1477 1479 1482 1484 1484 1484 1485 1487 1490 1492 1493 1494 1495 1496 1497 1497 1498 1500 1502 1504 1507 1510 1512 1515 1517 1519 1522 1524 1526 1528 1529 1531 1532 1534 1534 1536 1536
1488 1487 1484 1484 1489 1486 1482 1480 1480 1483 1485 1485 1486 1487 1488 1489 1489 1490 1493 1494 1495 1495 1495 1495 1497 1499 1501 1503 1506 1509 1511 1514 1516 1518 1521 1523 1524 1526 1528 1530 1531 1533 1533 1534
1487 1487 1484 1484 1489 1489 1479 1478 1482 1484 1486 1486 1488 1488 1488 1488 1485 1486 1491 1492 1492 1493 1493 1493 1494 1496 1498 1500 1502 1505 1507 1510 1513 1515 1517 1520 1521 1523 1525 1527 1528 1530 1531 1533
1484 1486 1484 1483 1485 1477 1477 1480 1483 1490 1486 1486 1487 1488 1489 1489 1489 1491 1490 1490 1491 1491 1491 1491 1492 1494 1495 1497 1499 1501 1504 1507 1510 1513 1515 1517 1519 1521 1523 1524 1526 1527 1529 1530
1479 1478 1482 1480 1484 1482 1479 1479 1481 1484 1486 1486 1487 1488 1490 1490 1490 1490 1490 1489 1489 1489 1489 1490 1490 1491 1493 1495 1496 1498 1501 1504 1507 1509 1512 1514 1516 1518 1520 1522 1524 1525 1527 1528
1476 1476 1473 1476 1479 1481 1482 1483 1485 1486 1487 1487 1488 1488 1489 1489 1489 1489 1489 1488 1488 1488 1488 1488 1489 1489 1491 1492 1494 1496 1498 1501 1503 1506 1508 1511 1513 1515 1517 1519 1521 1522 1524 1526
1478 1481 1479 1479 1478 1481 1483 1484 1485 1486 1486 1487 1487 1488 1488 1488 1488 1488 1488 1487 1487 1487 1486 1486 1487 1488 1489 1490 1492 1494 1496 1498 1500 1502 1505 1508 1510 1511 1513 1516 1518 1520 1521 1523
1478 1479 1478 1479 1480 1482 1483 1484 1485 1485 1486 1486 1486 1487 1487 1487 1487 1487 1486 1486 1486 1486 1485 1485 1486 1487 1487 1488 1490 1491 1493 1495 1497 1499 1502 1505 1506 1509 1510 1512 1514 1516 1518 1519
1479 1478 1477 1476 1479 1480 1482 1483 1484 1484 1484 1484 1485 1485 1485 1485 1485 1485 1485 1484 1484 1484 1483 1483 1484 1485 1485 1486 1487 1489 1491 1492 1494 1496 1498 1501 1503 1505 1507 1508 1510 1512 1514 1514